Home   Weather   Haltern am See   Past weeks

Flag for Germany Past Weather in Haltern am See, North Rhine-Westphalia, Germany — Yesterday and Last 2 Weeks

Now
61 °F

Sunny.


Feels Like: 61 °F
Forecast: 53 / 65 °F
Wind: 9 mph from West

Location: Dortmund / Wickede

Current Time: Sep 30, 2016 at 6:53:29 PM

Latest Report: Sep 30, 2016 at 5:50 PM


Visibility: 10 mi

Pressure: 29.95 "Hg

Humidity: 48%

Dew Point: 41 °F

Location of Haltern am SeeLocation

Past Weather in Haltern am See — Graph

°F

Haltern am See Temperature Yesterday

Maximum temperature yesterday: 73 °F (at 2:20 PM)
Minimum temperature yesterday: 61 °F (at 5:20 AM)
Average temperature yesterday: 66 °F

High & Low Weather Summary for the Past Weeks

 TemperatureHumidityPressure
High84 °F (Sep 15, 5:20 PM)88% (Sep 16, 6:20 AM)30.30 "Hg (Sep 16, 6:20 AM)
Low45 °F (Sep 21, 6:20 AM)25% (Sep 15, 5:20 PM)29.80 "Hg (Sep 15, 5:20 PM)
Average62 °F60%30.10 "Hg
* Reported Sep 15 5:20 PM — Sep 30 5:20 PM, Haltern am See, Weather by CustomWeather, © 2016

Note: Actual official high and low records may vary slightly from our data, if they occured in-between our weather recording intervals... More about our weather records

Advertising

Haltern am See Weather History for the Previous 24 Hours

Scroll right to see more
 ConditionsComfort  
Time TempWeatherWind HumidityBarometerVisibility
5:20 PM
Fri, Sep 30
61 °FPassing clouds.13 mph52%29.95 "HgN/A
4:50 PM63 °FPassing clouds.14 mph49%29.95 "HgN/A
4:20 PM63 °FScattered clouds.13 mph52%29.95 "HgN/A
3:50 PM63 °FScattered clouds.13 mph56%29.95 "HgN/A
3:20 PM61 °FPassing clouds.13 mph63%29.95 "HgN/A
2:50 PM61 °FScattered clouds.12 mph59%29.95 "HgN/A
2:20 PM61 °FScattered clouds.12 mph63%29.95 "HgN/A
1:50 PM61 °FScattered clouds.15 mph63%29.95 "HgN/A
1:20 PM61 °FScattered clouds.12 mph63%29.95 "HgN/A
12:50 PM61 °FScattered clouds.14 mph68%29.95 "HgN/A
12:20 PM61 °FScattered clouds.10 mph68%29.95 "HgN/A
11:50 AM59 °FScattered clouds.10 mph72%29.95 "HgN/A
11:20 AM59 °FSunny.12 mph72%29.95 "Hg10 mi
10:50 AM57 °FSunny.12 mph77%29.95 "Hg10 mi
10:20 AM57 °FPassing clouds.10 mph77%29.95 "HgN/A
9:50 AM57 °FScattered clouds.10 mph77%29.95 "HgN/A
9:20 AM57 °FBroken clouds.10 mph77%29.95 "HgN/A
8:50 AM55 °FScattered clouds.8 mph82%29.92 "HgN/A
8:20 AM55 °FScattered clouds.8 mph82%29.92 "HgN/A
7:50 AM55 °FScattered clouds.8 mph82%29.92 "HgN/A
7:20 AM55 °FPassing clouds.8 mph82%29.92 "HgN/A
6:50 AM55 °FPassing clouds.8 mph82%29.92 "HgN/A
6:20 AM55 °FPassing clouds.9 mph82%29.92 "HgN/A
5:50 AM55 °FPassing clouds.10 mph82%29.92 "HgN/A
5:20 AM55 °FPassing clouds.12 mph82%29.92 "HgN/A
9:50 PM
Thu, Sep 29
63 °FClear.21 mph68%29.92 "Hg10 mi
9:20 PM64 °FPassing clouds.23 mph60%29.92 "HgN/A
8:50 PM66 °FClear.17 mph56%29.89 "Hg10 mi
8:20 PM66 °FClear.15 mph56%29.89 "Hg10 mi
7:50 PM66 °FClear.13 mph56%29.92 "Hg10 mi
7:20 PM66 °FClear.15 mph52%29.92 "Hg10 mi
6:50 PM68 °FSunny.20 mph49%29.89 "Hg10 mi
6:20 PM68 °FScattered clouds.18 mph53%29.92 "HgN/A
Weather by CustomWeather, © 2016

See weather overviewHow to use our weather pages